Temp
60 59 59 58 57 58 58 57 56 56 56 56 55 55 54 54 54 53 53 53 53 52 51 50 50 51 51 50 50 50 50 51 51 50 50 50 51 50 50 49 49 49 49 49 49 48 48 49 49 49 48 48 48 47 47 47 47 47 48 47 47 47 47 47 46 46 45 46 46
60 59 58 56 56 56 57 56 55 55 56 56 56 55 55 54 54 54 53 53 53 53 52 50 50 50 50 50 50 50 50 50 50 50 50 50 50 50 49 49 49 49 49 49 48 48 48 49 49 48 47 47 47 47 47 47 48 48 47 47 47 46 47 47 47 47 46 46 46
60 59 58 58 57 57 56 56 56 56 56 56 56 56 55 55 54 54 54 54 54 53 52 50 50 50 49 49 50 50 50 50 50 50 50 50 50 50 49 49 49 49 49 48 48 48 48 49 49 48 47 47 47 47 46 46 47 47 47 47 46 46 46 46 47 47 46 46 46
59 59 58 57 57 57 57 56 56 56 56 56 56 56 55 55 54 54 54 54 54 53 52 50 50 49 49 48 49 50 50 50 50 50 50 50 49 49 49 49 49 49 48 48 48 48 49 49 49 48 48 48 48 47 47 46 46 46 47 47 46 46 46 46 46 46 45 46 46
59 58 58 57 57 57 57 57 57 56 56 55 55 55 54 54 54 54 54 53 53 52 51 50 50 49 49 49 49 50 50 50 49 49 50 49 49 49 49 49 49 48 48 48 48 48 48 49 49 49 48 48 48 48 48 47 46 46 46 46 45 45 46 46 45 45 45 45 45
58 58 58 57 57 58 58 58 57 56 55 55 54 54 54 53 53 53 53 53 52 51 50 49 49 49 49 49 49 49 50 50 49 49 50 49 49 48 48 48 48 48 48 48 48 47 47 48 48 48 48 48 49 49 48 47 46 46 46 45 45 45 46 46 45 45 45 45 44
59 58 58 58 58 57 57 57 56 56 55 54 54 53 53 53 53 54 53 53 51 50 49 49 49 49 49 49 49 49 49 49 49 50 49 49 48 48 48 48 48 48 48 48 47 47 47 48 48 47 46 46 47 47 47 46 46 46 46 45 45 45 45 46 45 45 44 44 44
59 59 59 59 58 58 57 56 56 55 54 54 54 54 54 53 54 54 53 51 50 49 49 49 49 49 49 49 49 49 49 49 49 49 49 49 48 48 48 48 48 48 48 48 48 48 48 48 48 47 46 46 46 46 45 45 45 46 46 46 45 44 44 45 44 44 44 44 43
59 59 59 59 58 57 57 57 56 55 54 53 55 55 54 53 53 52 51 50 50 50 50 50 50 49 49 49 49 49 49 49 49 49 49 49 48 48 48 48 48 48 48 48 48 48 48 47 47 47 47 46 46 46 45 44 44 45 46 46 45 44 43 43 43 44 43 43 43
59 59 59 58 57 56 56 56 56 55 55 54 55 55 53 52 51 51 51 51 51 51 50 50 50 50 50 50 50 50 50 49 49 49 49 49 49 48 48 48 48 48 48 48 48 48 47 47 46 46 46 47 47 46 44 43 43 44 45 45 45 44 43 42 42 43 43 43 43
59 59 59 58 57 56 56 56 55 55 55 55 55 54 52 50 51 51 52 52 52 51 50 51 51 51 51 50 50 50 50 50 50 50 50 49 49 49 49 49 49 49 48 48 48 47 47 46 46 46 46 46 47 45 44 43 43 44 44 45 44 44 43 42 42 42 43 43 43
60 59 59 59 58 57 56 55 55 55 55 55 55 53 52 51 52 53 53 53 52 51 51 51 51 51 51 51 51 51 50 50 50 50 50 50 50 49 49 49 49 49 48 47 47 47 47 47 46 46 46 46 46 45 44 43 43 44 44 44 44 43 43 42 42 42 43 44 43
60 59 59 59 58 57 56 55 55 55 55 54 54 53 53 53 53 53 53 53 52 52 52 52 51 51 51 52 51 51 51 51 50 50 50 50 50 50 50 50 49 49 48 47 46 46 47 47 47 47 46 45 45 45 44 43 43 44 44 44 43 43 43 43 43 42 42 42 42
60 59 58 57 56 56 55 55 55 55 54 54 54 54 54 54 54 54 53 53 53 53 53 52 52 51 52 52 51 51 51 51 50 50 49 49 50 50 50 49 49 49 48 47 46 46 47 47 47 47 47 46 45 44 44 43 43 44 44 44 43 43 43 43 43 42 41 40 41
58 57 57 56 55 55 55 55 55 55 54 54 54 55 55 54 54 53 53 54 53 53 53 52 52 51 52 52 51 52 52 52 51 50 49 49 49 50 49 49 49 49 48 47 45 45 46 47 47 47 47 46 45 45 44 43 43 44 44 44 43 43 43 44 43 42 41 40 41
58 57 56 55 55 55 55 55 55 55 54 54 55 55 55 55 54 53 53 53 53 53 53 52 52 52 51 51 51 52 52 52 51 50 50 50 50 50 49 49 49 49 48 47 45 45 45 46 47 47 47 47 47 46 45 44 44 44 44 45 45 45 45 45 44 43 41 41 42
58 57 57 56 55 55 55 55 55 55 55 55 55 56 55 55 54 53 52 53 53 53 53 53 52 52 51 51 51 51 52 52 51 51 51 50 50 50 50 49 49 49 48 47 46 45 45 46 46 46 47 47 47 47 47 45 45 44 45 45 45 45 45 45 44 43 42 41 42
59 58 57 57 56 56 55 55 56 56 56 56 56 56 56 55 54 53 52 52 53 53 53 53 53 52 52 51 51 51 51 51 51 51 51 51 51 51 50 50 49 49 48 47 47 46 47 47 47 46 47 47 48 48 48 47 46 45 45 45 45 45 45 44 44 43 43 42 43
59 58 57 57 57 56 56 56 56 57 57 57 57 56 56 55 54 53 53 53 52 52 53 52 53 52 52 51 51 50 50 51 51 51 52 52 52 51 51 50 49 48 48 47 47 48 48 48 47 47 46 47 47 47 47 47 46 45 45 45 45 44 44 44 44 44 43 43 43
59 59 58 58 58 58 58 57 58 58 58 58 57 56 56 55 54 53 53 53 52 52 52 52 53 52 52 51 51 50 50 51 51 51 52 52 51 51 50 50 49 48 48 47 48 48 49 49 48 47 47 47 47 47 47 46 46 45 45 44 44 44 44 43 43 44 44 44 44
60 59 59 59 59 59 59 59 59 59 59 58 57 56 56 55 54 54 54 53 52 52 52 52 52 52 52 51 50 50 50 51 51 51 51 51 51 51 50 50 49 49 48 48 48 48 49 49 48 47 47 46 46 46 46 46 45 45 44 44 44 44 43 43 43 43 44 44 44
60 60 60 60 60 60 60 60 59 59 58 57 56 56 56 55 55 54 54 53 52 52 52 52 52 52 51 50 50 50 50 50 50 50 51 51 50 50 50 50 50 49 49 49 49 49 49 48 47 47 46 45 46 45 45 45 45 45 44 44 44 43 43 43 43 43 43 44 44
61 61 60 60 60 60 59 59 59 59 58 57 56 56 55 55 54 54 53 53 52 52 52 52 52 52 51 50 50 50 50 50 50 50 50 50 50 50 50 49 50 49 49 49 49 49 48 47 47 46 46 45 46 46 45 44 44 44 44 44 44 43 43 42 42 42 43 44 44
61 61 61 60 60 60 59 59 59 58 57 56 55 55 55 54 54 54 53 53 52 52 52 52 52 51 51 51 50 50 50 50 50 50 49 49 49 49 49 49 49 49 48 47 46 46 46 45 46 46 46 46 46 45 45 44 44 44 44 44 43 43 42 42 42 42 42 43 44
61 61 60 60 60 59 59 58 57 56 55 55 55 55 54 54 53 53 53 53 52 52 52 52 51 51 50 50 50 50 50 50 49 49 48 47 48 48 49 49 48 47 46 44 43 43 42 42 44 46 47 47 46 45 44 44 43 43 43 42 42 42 42 41 41 41 42 43 43
61 60 60 59 59 59 58 57 56 55 54 54 54 54 53 53 53 53 52 52 52 51 51 51 51 50 49 49 49 49 49 49 48 47 47 46 47 48 48 48 47 45 44 43 41 41 41 41 41 42 44 47 46 45 44 43 42 42 42 41 41 41 41 41 41 41 41 42 43
60 59 59 59 58 58 57 56 55 54 54 53 53 53 53 53 52 52 52 51 51 51 51 51 50 48 47 48 48 48 48 47 47 46 46 46 47 47 47 46 46 44 43 41 41 40 40 40 40 40 41 44 45 44 44 43 42 41 41 40 40 40 40 40 41 41 41 42 42
59 59 59 58 58 57 56 56 55 54 53 52 53 53 53 52 51 51 51 51 51 50 50 49 49 48 48 48 48 47 47 46 46 46 46 47 47 47 46 45 45 44 43 41 41 40 40 40 40 40 40 41 43 43 43 42 42 42 41 41 41 41 41 41 42 42 42 42 42
58 58 57 57 56 56 55 55 54 53 53 52 52 52 52 51 50 50 50 50 50 50 49 48 47 46 47 48 48 47 46 46 46 46 47 47 47 46 45 44 45 44 43 41 41 41 41 41 40 40 39 39 42 43 43 43 42 42 42 42 42 42 42 42 42 43 43 43 42
57 57 56 56 55 55 54 54 53 52 52 51 51 51 51 50 49 49 50 50 50 49 48 47 46 46 46 48 47 46 46 46 46 47 47 46 45 45 44 44 45 45 44 41 41 41 41 41 40 40 39 39 40 42 43 43 43 43 43 43 43 42 42 42 43 43 43 43 43
56 56 56 55 55 54 53 53 52 51 50 50 50 50 50 49 49 49 50 50 50 48 47 46 46 46 47 47 47 46 46 47 47 46 46 45 44 44 44 45 46 45 44 41 41 41 41 41 41 40 39 38 39 41 43 43 43 43 43 43 43 43 43 43 43 43 43 43 43
56 56 55 54 54 53 53 52 51 50 50 49 49 49 49 49 49 49 49 49 48 47 46 46 46 46 46 46 46 46 46 46 46 45 45 44 45 45 45 46 46 46 44 42 42 41 41 41 40 40 39 38 39 41 43 43 43 43 43 43 43 43 43 43 43 43 43 43 43
56 55 54 53 53 52 51 51 50 49 49 48 48 49 49 49 48 48 48 48 47 46 46 46 46 46 46 45 45 45 45 45 45 44 44 44 45 46 46 45 47 46 44 42 41 41 40 40 40 40 39 38 40 42 43 44 44 44 43 43 43 43 43 43 43 43 43 43 43
55 54 54 53 52 51 50 50 49 48 48 48 48 48 48 48 47 47 47 46 46 46 46 47 47 47 46 46 45 45 44 44 45 45 45 45 46 46 45 46 47 46 43 42 41 40 40 40 40 39 39 38 40 42 44 44 44 44 43 43 43 43 43 42 43 43 43 43 43
54 54 53 53 52 51 50 50 49 49 48 48 48 47 47 47 47 46 46 45 46 46 47 47 47 47 46 46 45 45 45 45 45 45 45 46 45 45 44 45 47 45 42 41 41 40 40 40 40 39 39 39 41 43 44 44 44 44 43 43 43 43 42 42 42 42 42 43 43
55 54 53 53 52 51 51 51 50 49 48 48 47 46 46 46 46 46 46 45 46 46 46 46 46 46 45 45 45 45 46 46 45 45 45 44 44 43 44 45 46 44 42 41 40 40 40 40 39 39 39 40 43 44 45 45 44 44 43 43 43 42 42 41 41 41 42 42 42
55 54 53 52 52 52 51 50 50 49 48 47 46 46 46 46 46 46 46 46 46 46 45 45 45 45 45 45 46 46 46 45 44 44 43 43 43 43 43 44 46 44 42 40 40 39 39 40 39 39 40 42 44 45 45 45 44 43 43 42 42 42 41 41 40 40 40 40 40
56 55 53 52 52 52 51 50 49 48 48 47 46 46 46 46 46 46 46 46 46 46 45 45 45 46 46 46 46 45 45 44 43 43 42 42 42 43 43 44 45 44 42 40 40 39 39 40 39 39 40 42 44 45 45 44 43 43 42 41 41 41 41 40 40 39 39 38 37
57 56 55 53 53 52 51 50 49 48 47 47 46 46 46 46 46 46 46 46 47 46 46 46 46 46 45 45 45 44 43 43 42 41 41 41 42 42 42 43 43 43 42 40 40 39 39 40 39 39 39 41 43 44 44 44 43 42 41 41 40 40 40 39 39 39 38 37 36
57 56 55 54 53 51 50 50 49 47 47 46 46 46 46 46 46 46 46 47 48 47 47 46 45 45 44 43 43 42 42 42 41 40 40 41 41 41 41 41 42 42 42 40 40 39 39 39 39 39 39 41 43 44 44 43 42 41 40 40 40 40 39 39 38 38 38 37 36
56 55 54 53 52 51 50 50 49 47 47 46 46 46 46 46 45 46 47 48 48 48 46 45 44 44 43 42 42 41 41 41 40 40 40 40 41 41 40 41 41 42 42 42 41 40 39 39 39 38 39 40 42 43 43 42 41 40 40 40 40 40 39 39 38 38 37 37 36
MSLP
1021.48 1021.68 1021.92 1022.12 1022.36 1022.60 1022.88 1023.20 1023.48 1023.64 1023.88 1024.12 1024.44 1024.72 1024.96 1025.20 1025.36 1025.52 1025.72 1025.84 1025.92 1026.08 1026.32 1026.52 1026.68 1026.84 1027.00 1027.20 1027.36 1027.48 1027.60 1027.76 1027.84 1027.92 1028.00 1028.08 1028.20 1028.36 1028.52 1028.68 1028.76 1028.84 1028.92 1029.00 1029.12 1029.24 1029.36 1029.44 1029.48 1029.60 1029.72 1029.76 1029.80 1029.88 1029.96 1030.08 1030.08 1030.08 1030.08 1030.12 1030.20 1030.24 1030.32 1030.32 1030.36 1030.40 1030.48 1030.48 1030.48
1021.32 1021.52 1021.76 1022.04 1022.24 1022.48 1022.76 1023.12 1023.40 1023.64 1023.80 1024.04 1024.24 1024.48 1024.72 1024.92 1025.08 1025.24 1025.48 1025.64 1025.76 1025.92 1026.12 1026.36 1026.56 1026.68 1026.84 1027.04 1027.20 1027.36 1027.48 1027.64 1027.76 1027.84 1027.96 1028.04 1028.16 1028.32 1028.48 1028.64 1028.72 1028.76 1028.84 1028.92 1029.08 1029.20 1029.28 1029.36 1029.40 1029.48 1029.64 1029.72 1029.76 1029.80 1029.88 1029.96 1029.96 1029.92 1029.96 1030.04 1030.12 1030.20 1030.20 1030.20 1030.20 1030.28 1030.36 1030.40 1030.44
1021.16 1021.36 1021.60 1021.84 1022.08 1022.36 1022.60 1022.92 1023.20 1023.40 1023.64 1023.88 1024.08 1024.32 1024.52 1024.68 1024.80 1025.00 1025.20 1025.36 1025.48 1025.68 1025.92 1026.12 1026.36 1026.48 1026.64 1026.80 1027.00 1027.16 1027.28 1027.44 1027.56 1027.72 1027.84 1027.96 1028.12 1028.24 1028.36 1028.52 1028.64 1028.68 1028.76 1028.88 1028.96 1029.08 1029.16 1029.24 1029.32 1029.36 1029.48 1029.60 1029.64 1029.68 1029.76 1029.88 1029.92 1029.88 1029.88 1029.92 1030.04 1030.12 1030.16 1030.12 1030.20 1030.20 1030.28 1030.32 1030.36
1020.96 1021.20 1021.40 1021.64 1021.80 1022.00 1022.24 1022.48 1022.84 1023.12 1023.40 1023.68 1023.92 1024.16 1024.36 1024.52 1024.64 1024.76 1024.96 1025.16 1025.36 1025.48 1025.64 1025.80 1026.00 1026.20 1026.36 1026.56 1026.76 1026.92 1027.08 1027.24 1027.40 1027.56 1027.68 1027.84 1028.04 1028.16 1028.24 1028.36 1028.48 1028.64 1028.72 1028.80 1028.88 1028.92 1029.00 1029.08 1029.20 1029.28 1029.36 1029.40 1029.48 1029.52 1029.64 1029.76 1029.80 1029.80 1029.80 1029.84 1029.96 1030.04 1030.08 1030.08 1030.16 1030.20 1030.28 1030.28 1030.32
1020.80 1021.00 1021.12 1021.32 1021.52 1021.72 1021.92 1022.20 1022.48 1022.80 1023.16 1023.44 1023.76 1024.00 1024.20 1024.36 1024.48 1024.60 1024.76 1024.92 1025.08 1025.20 1025.32 1025.48 1025.64 1025.84 1026.08 1026.24 1026.48 1026.68 1026.92 1027.08 1027.32 1027.48 1027.60 1027.76 1027.92 1028.08 1028.20 1028.28 1028.36 1028.48 1028.64 1028.72 1028.80 1028.88 1028.92 1029.00 1029.08 1029.16 1029.20 1029.24 1029.36 1029.36 1029.48 1029.60 1029.72 1029.72 1029.76 1029.80 1029.92 1029.92 1029.92 1029.96 1030.08 1030.20 1030.20 1030.20 1030.28
1020.56 1020.76 1020.92 1021.16 1021.40 1021.60 1021.76 1022.04 1022.32 1022.64 1022.92 1023.20 1023.48 1023.68 1023.92 1024.12 1024.28 1024.40 1024.48 1024.60 1024.72 1024.88 1025.12 1025.36 1025.48 1025.64 1025.88 1026.08 1026.32 1026.52 1026.76 1027.00 1027.20 1027.36 1027.48 1027.64 1027.80 1027.96 1028.12 1028.20 1028.28 1028.40 1028.48 1028.64 1028.72 1028.80 1028.92 1028.92 1029.00 1029.08 1029.16 1029.20 1029.24 1029.28 1029.40 1029.52 1029.64 1029.64 1029.68 1029.76 1029.84 1029.84 1029.84 1029.84 1029.92 1030.04 1030.08 1030.08 1030.16
1020.28 1020.52 1020.76 1021.04 1021.28 1021.48 1021.64 1021.92 1022.20 1022.48 1022.76 1023.00 1023.20 1023.36 1023.56 1023.80 1023.96 1024.08 1024.20 1024.28 1024.48 1024.76 1025.08 1025.32 1025.44 1025.60 1025.76 1026.04 1026.24 1026.44 1026.68 1026.92 1027.12 1027.28 1027.44 1027.60 1027.76 1027.92 1028.04 1028.12 1028.20 1028.32 1028.40 1028.52 1028.64 1028.76 1028.84 1028.88 1028.92 1029.08 1029.16 1029.20 1029.24 1029.32 1029.44 1029.52 1029.56 1029.56 1029.56 1029.60 1029.68 1029.76 1029.72 1029.68 1029.80 1029.88 1029.92 1029.92 1029.92
1020.16 1020.36 1020.52 1020.80 1021.08 1021.28 1021.48 1021.76 1022.00 1022.28 1022.56 1022.76 1022.92 1023.08 1023.20 1023.44 1023.64 1023.80 1024.00 1024.20 1024.44 1024.68 1024.92 1025.20 1025.36 1025.48 1025.68 1025.92 1026.16 1026.36 1026.56 1026.80 1027.00 1027.20 1027.36 1027.52 1027.68 1027.80 1027.92 1028.08 1028.16 1028.24 1028.36 1028.48 1028.56 1028.64 1028.76 1028.84 1028.88 1028.92 1029.04 1029.16 1029.20 1029.28 1029.40 1029.48 1029.48 1029.44 1029.36 1029.40 1029.52 1029.64 1029.64 1029.60 1029.64 1029.72 1029.76 1029.76 1029.80
1020.04 1020.20 1020.40 1020.64 1020.92 1021.12 1021.32 1021.48 1021.72 1021.92 1022.20 1022.44 1022.56 1022.76 1023.00 1023.20 1023.40 1023.64 1023.88 1024.08 1024.28 1024.48 1024.76 1024.96 1025.20 1025.40 1025.60 1025.76 1026.00 1026.24 1026.48 1026.72 1026.92 1027.12 1027.36 1027.48 1027.64 1027.76 1027.88 1028.00 1028.08 1028.16 1028.24 1028.36 1028.48 1028.56 1028.64 1028.76 1028.76 1028.84 1028.88 1028.92 1029.00 1029.08 1029.20 1029.36 1029.36 1029.36 1029.28 1029.28 1029.36 1029.48 1029.56 1029.60 1029.60 1029.60 1029.64 1029.64 1029.68
1019.76 1020.00 1020.24 1020.52 1020.76 1021.00 1021.20 1021.36 1021.52 1021.68 1021.84 1022.08 1022.32 1022.56 1022.80 1023.00 1023.24 1023.48 1023.72 1023.92 1024.12 1024.36 1024.60 1024.76 1025.04 1025.24 1025.48 1025.68 1025.88 1026.12 1026.36 1026.56 1026.76 1026.96 1027.16 1027.32 1027.48 1027.64 1027.76 1027.84 1027.92 1028.00 1028.12 1028.24 1028.36 1028.44 1028.52 1028.64 1028.72 1028.76 1028.76 1028.76 1028.76 1028.84 1029.00 1029.20 1029.20 1029.16 1029.12 1029.16 1029.20 1029.32 1029.40 1029.48 1029.48 1029.48 1029.48 1029.48 1029.56
1019.44 1019.68 1019.96 1020.24 1020.56 1020.84 1021.08 1021.24 1021.40 1021.56 1021.72 1021.92 1022.12 1022.40 1022.64 1022.92 1023.12 1023.36 1023.56 1023.80 1024.04 1024.24 1024.44 1024.60 1024.80 1025.08 1025.28 1025.52 1025.76 1025.96 1026.20 1026.40 1026.60 1026.76 1026.92 1027.08 1027.24 1027.36 1027.52 1027.60 1027.68 1027.76 1027.92 1028.04 1028.20 1028.28 1028.40 1028.48 1028.60 1028.64 1028.64 1028.64 1028.64 1028.68 1028.80 1028.96 1028.96 1028.96 1028.96 1028.96 1029.04 1029.12 1029.20 1029.28 1029.36 1029.36 1029.36 1029.36 1029.36
1019.20 1019.48 1019.72 1020.00 1020.32 1020.64 1020.88 1021.08 1021.24 1021.40 1021.52 1021.72 1021.92 1022.20 1022.52 1022.76 1023.00 1023.20 1023.48 1023.72 1023.92 1024.08 1024.28 1024.48 1024.64 1024.84 1025.04 1025.28 1025.52 1025.76 1025.96 1026.16 1026.36 1026.52 1026.68 1026.80 1026.92 1027.08 1027.20 1027.36 1027.44 1027.52 1027.64 1027.84 1028.00 1028.16 1028.24 1028.36 1028.48 1028.52 1028.56 1028.56 1028.56 1028.60 1028.64 1028.72 1028.76 1028.76 1028.76 1028.80 1028.88 1028.92 1029.00 1029.08 1029.16 1029.20 1029.20 1029.20 1029.24
1019.04 1019.32 1019.56 1019.80 1020.16 1020.48 1020.72 1020.88 1021.04 1021.20 1021.36 1021.48 1021.72 1022.00 1022.32 1022.56 1022.84 1023.08 1023.36 1023.56 1023.72 1023.92 1024.16 1024.36 1024.56 1024.68 1024.80 1025.00 1025.20 1025.44 1025.64 1025.88 1026.08 1026.24 1026.40 1026.52 1026.64 1026.76 1026.92 1027.08 1027.20 1027.36 1027.48 1027.72 1027.88 1027.96 1028.08 1028.20 1028.36 1028.36 1028.36 1028.36 1028.40 1028.40 1028.44 1028.52 1028.56 1028.56 1028.56 1028.64 1028.72 1028.76 1028.76 1028.80 1028.92 1029.00 1029.04 1029.08 1029.12
1018.84 1019.08 1019.36 1019.64 1019.92 1020.24 1020.48 1020.64 1020.76 1020.92 1021.08 1021.28 1021.48 1021.76 1022.04 1022.36 1022.64 1022.92 1023.12 1023.32 1023.52 1023.76 1023.96 1024.20 1024.44 1024.56 1024.64 1024.72 1024.88 1025.08 1025.32 1025.52 1025.76 1025.96 1026.20 1026.32 1026.44 1026.56 1026.68 1026.80 1026.96 1027.12 1027.32 1027.52 1027.76 1027.88 1027.96 1028.08 1028.12 1028.08 1028.08 1028.12 1028.16 1028.20 1028.28 1028.36 1028.36 1028.32 1028.32 1028.36 1028.44 1028.48 1028.48 1028.56 1028.64 1028.80 1028.92 1028.96 1028.96
1018.72 1018.92 1019.16 1019.44 1019.76 1020.00 1020.20 1020.40 1020.56 1020.72 1020.88 1021.08 1021.24 1021.48 1021.76 1022.08 1022.40 1022.64 1022.88 1023.12 1023.36 1023.52 1023.76 1024.00 1024.20 1024.36 1024.48 1024.60 1024.72 1024.88 1025.08 1025.24 1025.48 1025.76 1025.96 1026.16 1026.28 1026.36 1026.48 1026.64 1026.76 1026.92 1027.12 1027.36 1027.60 1027.76 1027.80 1027.80 1027.76 1027.76 1027.76 1027.80 1027.88 1027.92 1028.08 1028.16 1028.12 1028.08 1028.08 1028.08 1028.12 1028.20 1028.24 1028.32 1028.44 1028.60 1028.72 1028.76 1028.76
1018.52 1018.76 1019.00 1019.24 1019.48 1019.72 1019.92 1020.08 1020.24 1020.44 1020.64 1020.80 1021.00 1021.20 1021.48 1021.76 1022.08 1022.40 1022.64 1022.88 1023.12 1023.36 1023.52 1023.72 1023.88 1024.12 1024.36 1024.52 1024.64 1024.76 1024.92 1025.08 1025.28 1025.48 1025.72 1025.92 1026.04 1026.20 1026.32 1026.44 1026.60 1026.76 1026.92 1027.16 1027.36 1027.52 1027.56 1027.48 1027.44 1027.44 1027.48 1027.52 1027.56 1027.64 1027.76 1027.88 1027.92 1027.92 1027.88 1027.88 1027.88 1027.92 1027.96 1028.08 1028.20 1028.32 1028.44 1028.48 1028.48
1018.20 1018.48 1018.72 1018.92 1019.20 1019.36 1019.56 1019.76 1019.92 1020.12 1020.32 1020.48 1020.72 1020.92 1021.20 1021.44 1021.76 1022.08 1022.36 1022.64 1022.84 1023.08 1023.28 1023.44 1023.64 1023.84 1024.12 1024.36 1024.56 1024.72 1024.84 1025.00 1025.12 1025.28 1025.48 1025.64 1025.76 1025.92 1026.08 1026.24 1026.36 1026.52 1026.76 1026.92 1027.08 1027.20 1027.20 1027.20 1027.20 1027.20 1027.24 1027.28 1027.28 1027.36 1027.40 1027.48 1027.60 1027.64 1027.64 1027.64 1027.64 1027.68 1027.72 1027.80 1027.92 1028.04 1028.16 1028.20 1028.20
1017.92 1018.12 1018.36 1018.60 1018.76 1018.96 1019.20 1019.36 1019.56 1019.76 1019.96 1020.16 1020.36 1020.60 1020.80 1021.08 1021.40 1021.76 1022.04 1022.36 1022.52 1022.72 1022.92 1023.12 1023.36 1023.60 1023.84 1024.12 1024.40 1024.60 1024.76 1024.88 1024.96 1025.08 1025.20 1025.36 1025.52 1025.68 1025.84 1025.96 1026.16 1026.36 1026.60 1026.72 1026.80 1026.88 1026.92 1026.92 1026.96 1027.04 1027.08 1027.08 1027.08 1027.08 1027.12 1027.20 1027.32 1027.36 1027.36 1027.36 1027.44 1027.48 1027.52 1027.64 1027.68 1027.76 1027.88 1027.92 1027.92
1017.52 1017.76 1018.00 1018.20 1018.36 1018.52 1018.76 1018.96 1019.20 1019.40 1019.64 1019.84 1020.04 1020.24 1020.48 1020.76 1021.04 1021.36 1021.76 1022.04 1022.24 1022.40 1022.64 1022.88 1023.12 1023.36 1023.60 1023.88 1024.16 1024.40 1024.56 1024.68 1024.76 1024.92 1025.04 1025.20 1025.36 1025.48 1025.64 1025.80 1026.04 1026.28 1026.48 1026.56 1026.64 1026.64 1026.64 1026.72 1026.80 1026.88 1026.88 1026.88 1026.88 1026.88 1026.92 1026.96 1027.04 1027.08 1027.16 1027.20 1027.20 1027.28 1027.36 1027.40 1027.48 1027.52 1027.56 1027.64 1027.64
1017.16 1017.36 1017.56 1017.68 1017.88 1018.12 1018.36 1018.60 1018.76 1019.04 1019.28 1019.52 1019.76 1019.96 1020.20 1020.48 1020.72 1021.08 1021.36 1021.68 1021.96 1022.20 1022.40 1022.64 1022.88 1023.16 1023.40 1023.68 1023.92 1024.16 1024.36 1024.48 1024.64 1024.76 1024.92 1025.04 1025.20 1025.36 1025.52 1025.72 1025.92 1026.16 1026.36 1026.44 1026.48 1026.48 1026.52 1026.60 1026.64 1026.68 1026.72 1026.68 1026.68 1026.68 1026.72 1026.76 1026.80 1026.84 1026.92 1026.96 1027.04 1027.08 1027.12 1027.20 1027.24 1027.32 1027.36 1027.36 1027.40
1016.76 1016.92 1017.08 1017.24 1017.48 1017.76 1017.96 1018.20 1018.48 1018.72 1019.00 1019.28 1019.48 1019.68 1019.92 1020.20 1020.48 1020.76 1021.04 1021.32 1021.68 1022.00 1022.24 1022.44 1022.68 1022.92 1023.20 1023.48 1023.76 1023.92 1024.08 1024.24 1024.44 1024.60 1024.76 1024.92 1025.08 1025.24 1025.44 1025.64 1025.88 1026.08 1026.20 1026.28 1026.36 1026.40 1026.48 1026.48 1026.48 1026.56 1026.60 1026.56 1026.56 1026.52 1026.56 1026.56 1026.60 1026.64 1026.68 1026.76 1026.76 1026.84 1026.92 1027.00 1027.08 1027.12 1027.12 1027.12 1027.16
1016.36 1016.52 1016.76 1017.00 1017.20 1017.44 1017.72 1017.96 1018.24 1018.52 1018.80 1019.04 1019.24 1019.48 1019.72 1020.00 1020.28 1020.56 1020.88 1021.20 1021.56 1021.92 1022.12 1022.36 1022.64 1022.84 1023.08 1023.36 1023.56 1023.76 1023.88 1024.04 1024.24 1024.44 1024.64 1024.80 1025.00 1025.20 1025.40 1025.64 1025.76 1025.92 1026.04 1026.08 1026.20 1026.36 1026.40 1026.40 1026.40 1026.44 1026.48 1026.48 1026.44 1026.40 1026.40 1026.40 1026.36 1026.40 1026.44 1026.48 1026.56 1026.64 1026.72 1026.80 1026.88 1026.92 1026.92 1026.92 1026.92
1016.04 1016.32 1016.60 1016.84 1017.08 1017.36 1017.60 1017.92 1018.12 1018.36 1018.64 1018.88 1019.12 1019.36 1019.64 1019.92 1020.20 1020.56 1020.92 1021.28 1021.60 1021.88 1022.12 1022.36 1022.64 1022.84 1023.08 1023.24 1023.48 1023.64 1023.76 1023.96 1024.12 1024.36 1024.56 1024.76 1024.96 1025.16 1025.36 1025.52 1025.68 1025.76 1025.84 1025.96 1026.20 1026.32 1026.32 1026.28 1026.28 1026.32 1026.36 1026.36 1026.32 1026.28 1026.24 1026.24 1026.24 1026.24 1026.20 1026.24 1026.32 1026.40 1026.48 1026.60 1026.64 1026.68 1026.72 1026.72 1026.68
1015.88 1016.20 1016.52 1016.80 1017.08 1017.32 1017.60 1017.84 1018.08 1018.32 1018.56 1018.80 1019.08 1019.36 1019.64 1019.96 1020.32 1020.68 1021.04 1021.36 1021.64 1021.88 1022.16 1022.40 1022.64 1022.92 1023.12 1023.28 1023.44 1023.60 1023.76 1023.92 1024.08 1024.28 1024.48 1024.76 1024.92 1025.08 1025.24 1025.36 1025.52 1025.64 1025.76 1026.00 1026.20 1026.28 1026.20 1026.12 1026.08 1026.08 1026.12 1026.20 1026.16 1026.16 1026.12 1026.12 1026.12 1026.12 1026.08 1026.08 1026.12 1026.20 1026.28 1026.36 1026.44 1026.48 1026.52 1026.48 1026.48
1015.96 1016.28 1016.56 1016.88 1017.12 1017.36 1017.64 1017.92 1018.20 1018.40 1018.64 1018.88 1019.12 1019.44 1019.76 1020.08 1020.40 1020.76 1021.08 1021.40 1021.68 1021.92 1022.16 1022.40 1022.64 1022.92 1023.12 1023.28 1023.44 1023.60 1023.76 1023.88 1024.08 1024.20 1024.44 1024.64 1024.80 1024.96 1025.08 1025.24 1025.40 1025.56 1025.80 1026.08 1026.20 1026.20 1026.08 1025.96 1025.92 1025.88 1025.88 1025.92 1025.92 1025.92 1025.96 1026.00 1026.04 1026.00 1026.00 1026.00 1026.04 1026.08 1026.08 1026.16 1026.20 1026.28 1026.28 1026.24 1026.28
1016.20 1016.48 1016.76 1017.04 1017.32 1017.60 1017.88 1018.12 1018.40 1018.64 1018.88 1019.12 1019.36 1019.64 1019.92 1020.20 1020.48 1020.80 1021.08 1021.44 1021.76 1022.04 1022.28 1022.48 1022.68 1022.92 1023.08 1023.24 1023.44 1023.60 1023.76 1023.92 1024.08 1024.20 1024.36 1024.56 1024.72 1024.84 1024.96 1025.16 1025.36 1025.60 1025.88 1026.08 1026.08 1026.04 1025.88 1025.76 1025.72 1025.72 1025.72 1025.72 1025.72 1025.76 1025.76 1025.80 1025.80 1025.84 1025.88 1025.92 1025.92 1025.96 1025.96 1025.96 1025.96 1026.00 1026.04 1026.08 1026.08
1016.40 1016.72 1017.00 1017.28 1017.56 1017.88 1018.12 1018.40 1018.72 1019.00 1019.20 1019.36 1019.60 1019.76 1020.00 1020.24 1020.56 1020.88 1021.16 1021.48 1021.80 1022.12 1022.36 1022.56 1022.72 1022.92 1023.08 1023.20 1023.36 1023.48 1023.68 1023.84 1024.04 1024.20 1024.32 1024.44 1024.52 1024.68 1024.88 1025.08 1025.36 1025.60 1025.80 1025.92 1025.88 1025.76 1025.60 1025.52 1025.52 1025.60 1025.64 1025.60 1025.60 1025.60 1025.60 1025.60 1025.60 1025.68 1025.76 1025.76 1025.80 1025.80 1025.76 1025.72 1025.64 1025.68 1025.76 1025.84 1025.88
1016.52 1016.80 1017.12 1017.44 1017.72 1018.00 1018.24 1018.56 1018.88 1019.16 1019.36 1019.56 1019.72 1019.84 1020.04 1020.28 1020.56 1020.88 1021.20 1021.48 1021.84 1022.16 1022.44 1022.60 1022.76 1022.88 1023.00 1023.08 1023.24 1023.40 1023.60 1023.76 1023.92 1024.12 1024.28 1024.36 1024.44 1024.60 1024.80 1025.08 1025.36 1025.52 1025.68 1025.72 1025.60 1025.44 1025.36 1025.32 1025.36 1025.44 1025.48 1025.48 1025.48 1025.44 1025.44 1025.40 1025.44 1025.48 1025.52 1025.60 1025.56 1025.52 1025.48 1025.48 1025.44 1025.44 1025.48 1025.52 1025.64
1016.52 1016.84 1017.12 1017.40 1017.72 1018.00 1018.28 1018.56 1018.84 1019.12 1019.40 1019.60 1019.76 1019.92 1020.16 1020.36 1020.60 1020.88 1021.20 1021.48 1021.84 1022.12 1022.36 1022.48 1022.68 1022.84 1022.92 1022.96 1023.08 1023.32 1023.52 1023.72 1023.92 1024.08 1024.24 1024.36 1024.48 1024.64 1024.88 1025.12 1025.32 1025.40 1025.48 1025.48 1025.36 1025.20 1025.12 1025.08 1025.16 1025.20 1025.24 1025.28 1025.28 1025.24 1025.24 1025.20 1025.24 1025.24 1025.24 1025.24 1025.20 1025.20 1025.20 1025.12 1025.12 1025.12 1025.16 1025.20 1025.36
1016.48 1016.76 1017.08 1017.36 1017.64 1017.96 1018.24 1018.48 1018.80 1019.08 1019.36 1019.64 1019.88 1020.04 1020.24 1020.48 1020.68 1020.92 1021.20 1021.44 1021.72 1021.96 1022.16 1022.36 1022.52 1022.68 1022.76 1022.80 1023.00 1023.24 1023.48 1023.68 1023.88 1024.08 1024.24 1024.44 1024.56 1024.68 1024.92 1025.12 1025.20 1025.20 1025.20 1025.20 1025.08 1024.96 1024.88 1024.88 1024.88 1024.92 1024.96 1025.04 1025.08 1025.08 1025.08 1025.00 1024.96 1024.92 1024.92 1024.88 1024.84 1024.84 1024.84 1024.84 1024.80 1024.80 1024.88 1024.92 1025.08
1016.32 1016.56 1016.84 1017.20 1017.52 1017.84 1018.12 1018.44 1018.76 1019.08 1019.36 1019.64 1019.92 1020.08 1020.28 1020.48 1020.64 1020.88 1021.08 1021.32 1021.52 1021.76 1022.04 1022.24 1022.36 1022.48 1022.56 1022.72 1022.92 1023.16 1023.36 1023.60 1023.84 1024.12 1024.32 1024.48 1024.56 1024.72 1024.92 1025.00 1025.04 1025.04 1025.04 1025.04 1024.88 1024.76 1024.64 1024.64 1024.64 1024.64 1024.68 1024.80 1024.88 1024.88 1024.80 1024.76 1024.68 1024.64 1024.64 1024.56 1024.48 1024.48 1024.48 1024.52 1024.52 1024.56 1024.60 1024.68 1024.76
1016.00 1016.24 1016.48 1016.84 1017.20 1017.52 1017.92 1018.28 1018.60 1018.92 1019.20 1019.44 1019.64 1019.88 1020.08 1020.28 1020.48 1020.68 1020.92 1021.12 1021.36 1021.64 1021.92 1022.04 1022.20 1022.36 1022.48 1022.72 1022.92 1023.08 1023.32 1023.56 1023.88 1024.16 1024.36 1024.44 1024.48 1024.64 1024.76 1024.76 1024.76 1024.76 1024.80 1024.76 1024.68 1024.52 1024.44 1024.40 1024.40 1024.40 1024.44 1024.48 1024.64 1024.60 1024.48 1024.44 1024.40 1024.36 1024.32 1024.24 1024.20 1024.20 1024.20 1024.24 1024.28 1024.32 1024.36 1024.40 1024.52
1015.76 1015.96 1016.20 1016.48 1016.76 1017.04 1017.36 1017.76 1018.16 1018.48 1018.80 1019.08 1019.24 1019.48 1019.68 1019.92 1020.20 1020.48 1020.72 1020.92 1021.20 1021.48 1021.68 1021.84 1022.00 1022.20 1022.40 1022.60 1022.80 1023.04 1023.28 1023.60 1023.92 1024.16 1024.24 1024.24 1024.36 1024.48 1024.56 1024.56 1024.56 1024.56 1024.56 1024.52 1024.40 1024.32 1024.24 1024.20 1024.20 1024.20 1024.20 1024.28 1024.36 1024.32 1024.24 1024.20 1024.16 1024.12 1024.08 1024.00 1023.92 1023.92 1023.92 1023.96 1024.00 1024.04 1024.08 1024.20 1024.32
1015.52 1015.76 1016.04 1016.24 1016.48 1016.72 1016.96 1017.28 1017.64 1018.00 1018.32 1018.56 1018.72 1018.92 1019.20 1019.52 1019.88 1020.20 1020.48 1020.76 1021.08 1021.24 1021.44 1021.64 1021.80 1022.04 1022.24 1022.48 1022.72 1022.92 1023.24 1023.64 1023.84 1023.96 1024.04 1024.08 1024.20 1024.28 1024.32 1024.36 1024.36 1024.36 1024.32 1024.28 1024.20 1024.08 1024.08 1024.08 1024.04 1023.96 1024.00 1024.08 1024.12 1024.08 1024.00 1023.96 1023.92 1023.88 1023.80 1023.72 1023.68 1023.64 1023.68 1023.76 1023.76 1023.80 1023.88 1023.96 1024.08
1015.36 1015.64 1015.88 1016.12 1016.44 1016.76 1017.00 1017.20 1017.44 1017.72 1017.96 1018.12 1018.28 1018.52 1018.84 1019.20 1019.56 1019.92 1020.24 1020.64 1020.92 1021.12 1021.36 1021.52 1021.76 1021.96 1022.20 1022.48 1022.64 1022.92 1023.24 1023.52 1023.68 1023.76 1023.88 1024.00 1024.08 1024.12 1024.12 1024.16 1024.16 1024.12 1024.12 1024.08 1024.00 1023.96 1023.92 1023.92 1023.84 1023.80 1023.80 1023.88 1023.88 1023.80 1023.76 1023.68 1023.64 1023.56 1023.48 1023.44 1023.40 1023.40 1023.48 1023.52 1023.56 1023.64 1023.72 1023.76 1023.88
1015.20 1015.48 1015.76 1016.04 1016.40 1016.72 1017.00 1017.20 1017.44 1017.64 1017.84 1017.96 1018.08 1018.36 1018.68 1019.04 1019.36 1019.72 1020.08 1020.48 1020.76 1021.00 1021.24 1021.48 1021.68 1021.96 1022.20 1022.40 1022.64 1022.92 1023.16 1023.36 1023.48 1023.64 1023.80 1023.92 1023.92 1023.92 1024.00 1024.04 1023.96 1023.92 1023.92 1023.88 1023.84 1023.84 1023.76 1023.76 1023.68 1023.64 1023.64 1023.64 1023.64 1023.52 1023.48 1023.40 1023.32 1023.28 1023.20 1023.20 1023.20 1023.20 1023.24 1023.36 1023.40 1023.48 1023.56 1023.64 1023.68
1015.08 1015.36 1015.68 1015.96 1016.28 1016.56 1016.80 1017.08 1017.32 1017.56 1017.76 1017.92 1018.16 1018.40 1018.68 1019.00 1019.36 1019.68 1020.00 1020.36 1020.64 1020.88 1021.12 1021.36 1021.60 1021.80 1022.04 1022.28 1022.56 1022.80 1023.00 1023.20 1023.40 1023.56 1023.68 1023.76 1023.76 1023.80 1023.84 1023.84 1023.76 1023.68 1023.64 1023.68 1023.72 1023.68 1023.64 1023.60 1023.48 1023.48 1023.48 1023.48 1023.40 1023.28 1023.20 1023.16 1023.08 1023.04 1023.00 1022.96 1022.96 1023.00 1023.08 1023.20 1023.28 1023.36 1023.48 1023.48 1023.56
1015.00 1015.32 1015.60 1015.88 1016.16 1016.44 1016.72 1016.96 1017.24 1017.48 1017.72 1017.92 1018.20 1018.48 1018.76 1019.08 1019.36 1019.64 1019.92 1020.20 1020.40 1020.68 1020.96 1021.20 1021.40 1021.60 1021.84 1022.12 1022.44 1022.72 1022.96 1023.16 1023.32 1023.48 1023.52 1023.56 1023.60 1023.64 1023.68 1023.64 1023.52 1023.48 1023.48 1023.48 1023.52 1023.52 1023.48 1023.40 1023.32 1023.32 1023.32 1023.28 1023.20 1023.08 1023.00 1022.92 1022.92 1022.88 1022.80 1022.80 1022.76 1022.84 1022.92 1023.08 1023.16 1023.24 1023.36 1023.40 1023.48
1014.92 1015.20 1015.48 1015.76 1016.04 1016.36 1016.64 1016.92 1017.20 1017.44 1017.68 1017.96 1018.28 1018.52 1018.80 1019.08 1019.36 1019.64 1019.88 1020.04 1020.20 1020.44 1020.68 1020.96 1021.20 1021.48 1021.76 1022.04 1022.36 1022.68 1022.92 1023.12 1023.24 1023.36 1023.40 1023.40 1023.44 1023.48 1023.48 1023.48 1023.36 1023.32 1023.32 1023.32 1023.36 1023.36 1023.32 1023.20 1023.16 1023.12 1023.16 1023.12 1023.04 1022.92 1022.80 1022.76 1022.68 1022.64 1022.64 1022.64 1022.64 1022.72 1022.80 1022.92 1023.08 1023.12 1023.20 1023.32 1023.48
1014.88 1015.16 1015.44 1015.68 1016.00 1016.32 1016.64 1016.92 1017.20 1017.48 1017.76 1018.04 1018.28 1018.56 1018.76 1019.04 1019.36 1019.64 1019.88 1020.00 1020.08 1020.24 1020.48 1020.84 1021.12 1021.40 1021.72 1022.04 1022.36 1022.64 1022.88 1023.04 1023.16 1023.20 1023.24 1023.24 1023.28 1023.32 1023.36 1023.28 1023.20 1023.16 1023.12 1023.16 1023.16 1023.16 1023.08 1023.00 1022.96 1022.96 1022.96 1022.92 1022.80 1022.72 1022.64 1022.56 1022.52 1022.48 1022.48 1022.48 1022.48 1022.56 1022.64 1022.76 1022.92 1023.00 1023.08 1023.16 1023.36
1014.92 1015.20 1015.48 1015.72 1016.04 1016.32 1016.60 1016.88 1017.20 1017.52 1017.80 1018.04 1018.28 1018.52 1018.76 1019.04 1019.32 1019.56 1019.76 1019.88 1019.96 1020.16 1020.44 1020.80 1021.12 1021.40 1021.72 1022.04 1022.32 1022.52 1022.76 1022.88 1022.96 1023.04 1023.08 1023.12 1023.12 1023.16 1023.16 1023.12 1023.08 1023.00 1022.92 1022.92 1022.92 1022.92 1022.88 1022.84 1022.76 1022.76 1022.80 1022.76 1022.64 1022.52 1022.48 1022.44 1022.36 1022.32 1022.24 1022.20 1022.28 1022.36 1022.44 1022.56 1022.68 1022.80 1022.92 1023.00 1023.12
Wind_Speed
12 11 10 10 9 9 8 7 8 8 8 9 9 9 9 9 9 8 8 8 8 8 8 7 8 8 10 13 13 12 11 11 12 12 12 12 12 12 12 12 11 11 11 11 11 10 9 8 7 6 5 5 5 6 5 5 6 6 6 6 6 6 7 7 7 8 8 7 5
14 13 11 10 9 8 8 8 8 8 8 8 9 9 9 9 9 9 9 9 8 8 8 7 8 10 11 14 13 13 12 12 13 13 12 13 13 13 12 11 11 12 12 12 11 9 8 8 7 6 5 5 5 5 6 5 6 6 7 7 6 5 5 6 7 7 8 7 6
14 13 12 11 11 10 9 8 9 10 10 9 9 9 9 8 8 8 9 9 9 9 8 8 9 11 13 14 13 12 12 13 13 13 12 12 13 13 12 11 12 12 12 11 10 9 8 8 7 6 5 5 6 6 6 6 6 6 7 7 5 4 4 4 5 6 6 5 6
14 14 13 13 14 14 12 10 12 12 12 10 9 9 9 8 8 8 9 10 10 10 9 9 10 11 13 14 14 13 13 13 14 13 13 12 13 13 13 12 12 12 12 11 11 10 9 9 7 5 6 7 7 7 6 5 6 6 5 5 5 5 4 4 4 4 4 4 5
14 14 13 13 16 15 13 12 13 13 12 10 9 9 8 8 8 8 9 10 10 10 10 11 11 11 12 14 15 15 14 14 13 12 12 12 13 13 13 13 12 12 11 11 11 11 10 9 6 5 5 6 6 6 6 7 6 6 5 4 4 4 5 4 4 4 4 4 4
15 14 14 13 15 14 12 11 14 13 12 10 11 11 10 8 8 9 10 10 11 11 12 12 11 11 13 14 15 15 14 14 12 12 12 12 12 12 13 13 13 12 11 11 11 11 10 9 6 5 5 5 5 6 6 7 6 6 5 4 4 4 5 5 5 5 5 5 6
15 15 15 14 15 14 12 12 13 13 12 11 13 13 13 11 11 12 12 11 10 10 11 10 11 11 12 14 14 14 13 12 12 12 12 12 12 12 13 12 12 12 11 11 11 10 9 8 6 5 4 4 4 5 6 7 6 6 6 6 5 5 5 6 5 5 6 7 8
15 15 16 15 15 15 14 14 13 13 12 11 13 15 16 15 15 15 13 11 10 10 10 9 11 12 13 14 14 13 13 13 12 12 12 11 12 13 12 12 12 12 12 11 11 10 9 7 5 5 5 5 4 5 7 8 8 7 7 7 6 5 5 5 5 5 6 8 9
14 15 15 15 15 15 15 15 15 14 13 13 15 16 17 16 16 15 13 11 10 11 11 10 12 14 14 14 14 14 13 13 13 12 12 11 12 12 12 12 12 12 11 10 11 11 10 7 5 5 5 5 5 6 7 9 9 9 8 7 6 6 6 5 6 6 7 8 9
15 15 15 14 14 14 14 15 15 15 16 15 16 17 16 15 15 14 12 10 11 11 11 11 13 14 15 15 15 14 13 12 12 12 12 12 12 13 12 11 12 12 11 10 10 10 10 7 6 6 6 6 7 8 9 10 10 10 9 6 7 7 8 7 7 7 8 8 9
16 16 15 14 15 15 14 14 14 14 15 15 16 16 15 14 14 13 12 10 11 12 13 13 14 15 15 15 14 14 13 12 12 13 13 13 13 13 13 12 13 12 12 11 10 9 8 7 7 8 8 8 8 9 9 10 11 11 10 7 8 9 9 9 8 8 8 8 9
16 16 16 15 15 15 15 14 13 13 14 14 15 15 14 13 14 13 12 12 12 13 13 13 15 15 15 13 14 14 13 13 13 13 14 14 14 14 14 13 13 13 13 12 10 8 8 8 8 9 10 10 8 8 9 11 11 11 11 10 9 10 10 10 10 8 8 8 9
16 16 15 15 16 16 15 14 13 13 13 14 14 14 13 13 14 14 14 14 13 13 12 13 14 15 15 14 14 14 14 14 14 14 13 14 14 14 14 14 14 13 13 11 10 9 8 8 10 11 11 11 9 9 10 11 12 12 12 11 11 11 11 11 10 9 8 8 9
16 15 15 15 16 15 14 14 13 12 13 14 14 14 14 14 14 14 14 14 14 13 12 13 13 13 13 14 14 15 15 15 15 14 14 14 14 14 14 13 14 13 12 10 10 10 10 10 11 12 13 13 11 11 11 12 12 12 12 12 12 12 12 11 11 10 9 9 9
15 15 15 15 15 15 14 14 12 12 13 14 14 14 13 13 13 13 13 14 14 13 12 13 12 12 13 14 15 15 16 15 15 15 14 14 14 14 14 13 13 13 12 10 10 10 11 13 14 14 14 13 13 13 12 12 12 13 13 13 13 13 13 12 11 11 10 11 10
15 15 15 15 15 15 14 14 12 11 13 14 14 14 13 13 13 13 14 14 13 12 12 13 13 13 13 13 14 15 15 15 15 15 15 14 14 14 14 13 13 13 12 11 11 11 12 14 14 14 14 14 14 14 13 13 13 13 13 13 13 13 13 12 12 12 11 12 11
16 16 16 16 17 17 16 15 12 12 13 14 15 15 14 13 13 13 14 14 13 13 13 15 14 13 13 13 13 13 14 14 14 14 14 14 15 15 14 14 14 13 13 12 12 12 13 14 13 13 14 14 14 14 14 14 13 14 14 14 14 13 13 12 12 12 12 12 12
17 17 17 18 18 18 18 17 15 14 15 16 16 15 15 14 14 14 14 15 14 15 16 16 15 14 13 14 13 12 12 13 13 14 14 14 15 15 15 14 13 13 13 12 12 13 14 15 14 14 13 13 13 13 13 13 13 14 14 14 14 13 13 12 12 12 12 13 13
18 18 18 19 20 20 19 18 17 17 16 17 16 16 16 15 16 15 15 16 15 16 17 16 15 14 14 15 13 12 12 12 14 14 14 14 14 14 14 14 13 12 12 12 12 13 14 15 14 14 13 13 13 13 13 13 13 13 13 13 13 13 12 12 12 12 12 13 13
19 19 20 20 20 20 20 20 19 18 17 16 17 17 17 17 17 17 17 17 16 16 16 16 15 15 14 15 14 14 13 12 13 14 15 14 14 14 13 13 12 12 12 12 12 12 13 14 14 14 14 14 13 13 13 13 13 13 13 12 12 12 13 12 12 13 13 13 13
20 20 20 20 20 20 20 20 19 18 17 17 17 18 18 18 18 18 18 18 17 16 16 16 16 15 15 15 15 15 13 11 13 14 14 13 13 13 12 12 12 11 11 11 11 11 13 13 13 13 13 13 13 13 13 13 13 13 13 11 11 12 12 12 12 13 13 13 13
20 20 20 19 19 19 19 19 18 17 17 17 17 17 17 17 17 18 17 17 16 16 16 15 15 15 15 15 15 15 13 11 12 12 12 12 12 11 11 11 11 11 11 11 10 11 12 13 13 12 12 12 13 13 13 13 13 13 13 12 12 12 12 12 12 13 13 13 13
19 18 18 17 18 18 18 17 17 17 16 16 16 16 16 16 16 16 15 14 14 14 14 13 13 13 14 14 14 14 13 12 11 11 11 11 10 10 10 10 11 11 10 9 9 10 11 12 12 12 12 11 13 13 13 13 13 12 13 13 13 12 12 12 12 12 13 13 13
18 16 15 14 15 16 16 16 15 15 15 15 15 15 15 15 14 14 14 13 13 13 13 11 11 11 12 13 13 13 13 12 12 12 11 10 10 10 10 10 10 9 8 6 7 9 10 9 10 10 11 11 12 12 12 12 12 12 12 12 12 12 12 11 12 13 13 13 13
15 14 13 12 13 14 14 13 13 13 13 12 13 13 13 13 13 13 13 13 12 12 12 11 10 10 10 10 11 12 12 12 12 12 11 11 10 10 10 9 8 6 5 4 8 11 12 11 10 9 9 10 10 10 11 11 12 12 11 11 11 11 11 11 12 13 13 14 13
12 11 11 11 11 11 11 11 10 10 10 10 11 12 12 12 12 12 12 12 11 11 11 11 10 9 9 9 10 10 10 10 10 11 11 11 11 11 10 8 6 4 4 5 10 13 15 15 13 11 9 9 9 9 9 10 11 11 11 11 11 11 11 11 12 13 13 14 14
9 9 9 9 9 9 9 8 8 8 8 9 10 11 11 11 11 11 11 11 10 10 10 10 9 8 8 8 10 10 10 9 9 10 10 11 11 11 9 6 5 4 4 7 12 15 17 17 15 13 11 9 9 9 9 9 9 10 10 11 11 11 12 12 13 13 13 13 13
8 8 8 8 8 8 8 8 8 8 8 9 10 10 11 11 11 10 10 10 10 9 9 8 7 7 6 7 9 10 10 9 9 9 9 10 10 9 7 5 5 5 6 10 14 16 17 16 15 14 13 11 10 9 9 9 9 9 9 10 10 12 13 13 13 12 13 13 13
8 8 8 9 9 9 9 9 9 9 9 9 9 9 10 10 10 10 10 10 10 10 9 8 6 6 6 7 9 9 9 9 9 8 8 8 7 6 5 5 5 6 8 11 14 16 16 14 14 15 15 14 10 8 8 8 8 8 8 8 9 11 12 12 12 12 12 12 12
10 10 10 10 10 10 10 10 10 10 9 8 9 9 9 9 10 10 11 11 12 11 10 8 7 7 8 9 9 8 8 8 7 7 6 6 6 5 5 6 6 6 8 11 14 15 15 14 14 14 15 15 12 10 8 8 8 8 8 8 10 11 12 12 13 13 12 11 12
11 11 12 12 12 11 11 11 11 10 10 9 9 9 9 10 10 11 12 12 12 11 9 8 9 9 10 9 8 8 8 7 6 6 5 6 5 5 6 6 6 6 8 11 13 14 14 14 14 14 15 15 12 10 9 9 9 9 9 9 10 12 12 12 13 13 13 13 12
13 13 13 14 14 14 13 13 12 12 12 11 11 11 11 12 12 12 12 12 11 10 9 9 10 10 10 9 8 8 7 7 6 6 6 6 6 6 6 6 6 6 8 11 14 15 14 14 14 14 14 14 12 11 11 10 10 10 10 11 12 13 13 11 11 12 14 14 13
14 14 14 15 15 15 16 16 15 14 14 14 14 14 14 14 13 12 12 10 10 10 11 11 11 11 10 9 8 8 7 7 7 7 7 6 7 7 6 5 5 6 8 11 14 14 14 13 14 14 14 13 11 11 11 11 10 9 10 11 12 13 13 13 12 12 13 13 13
14 14 14 15 15 15 16 16 16 16 15 16 16 15 15 14 14 13 12 10 10 10 10 11 10 10 9 9 8 8 8 7 7 7 7 7 7 6 5 3 4 6 9 12 13 14 13 13 13 13 13 12 10 10 10 11 10 10 10 11 12 12 13 13 13 13 13 13 12
14 14 14 14 14 14 14 15 15 15 16 16 16 15 15 14 14 13 12 11 10 10 9 9 8 8 8 8 8 8 8 7 7 6 6 6 5 4 3 4 6 8 10 12 13 13 12 13 13 13 12 10 8 8 9 11 11 11 12 13 13 12 12 12 12 12 12 13 13
15 15 14 14 14 14 14 15 15 15 15 15 14 14 14 13 13 12 12 11 10 10 9 9 8 8 9 9 8 8 8 7 6 5 4 4 3 3 3 6 8 10 11 11 12 12 12 13 13 13 11 8 7 7 8 9 9 11 12 13 13 12 12 11 11 11 11 11 12
15 14 14 14 14 14 14 14 14 14 14 13 13 13 12 12 12 11 11 11 11 11 10 10 10 10 10 10 9 8 7 6 5 4 4 3 3 3 5 8 10 10 10 10 10 11 12 13 14 12 10 8 7 7 7 8 8 9 10 11 12 12 11 10 10 10 11 11 11
15 14 14 14 14 14 14 13 13 13 13 12 11 11 11 11 11 11 11 11 11 12 12 11 12 12 11 10 9 7 6 5 5 4 4 3 3 4 6 9 10 10 9 8 9 10 12 14 14 12 10 8 8 7 7 7 7 8 8 9 9 9 9 8 8 8 9 11 11
15 14 14 14 14 14 13 13 12 12 11 11 11 11 11 10 10 10 10 10 11 12 13 13 12 11 10 9 8 6 5 4 4 4 4 4 4 5 7 9 9 9 8 7 9 11 12 14 13 12 10 8 8 8 7 7 7 8 8 8 7 8 8 7 7 7 8 10 11
14 14 14 13 13 13 13 13 12 11 10 10 11 11 11 11 10 10 10 10 11 12 13 12 12 11 9 8 7 6 5 4 4 4 4 4 5 6 7 8 8 8 8 8 10 11 13 13 12 11 10 8 8 7 7 6 7 8 8 8 7 7 7 7 6 6 7 8 10
12 12 12 12 12 12 12 12 11 11 10 10 11 11 10 10 11 11 11 10 11 12 11 11 11 10 8 7 6 5 4 4 4 4 5 5 6 7 7 7 8 8 8 9 10 11 12 12 12 12 10 8 8 7 6 6 7 8 9 9 7 7 6 6 6 6 7 8 8
Wind_Direction
171 170 169 168 167 167 167 164 165 165 165 165 166 167 169 170 169 169 170 171 169 167 166 167 168 166 165 166 168 169 168 167 167 167 167 166 165 164 163 162 161 159 158 156 156 157 159 159 156 155 155 156 155 155 157 161 163 163 162 159 158 160 162 162 161 164 167 169 164
173 171 168 166 165 164 162 161 164 167 168 169 168 169 169 171 170 170 171 173 171 167 165 165 168 168 167 168 170 170 169 169 169 169 169 168 166 165 164 164 164 162 160 159 159 160 161 163 160 157 156 158 158 159 163 169 169 168 166 163 161 164 167 168 166 167 170 170 167
173 171 168 166 166 166 165 164 168 171 171 170 170 170 171 172 172 171 172 174 171 167 165 166 170 170 169 169 171 171 171 171 171 171 170 169 168 167 166 166 166 165 163 162 163 164 164 165 162 160 159 163 164 164 165 172 176 174 169 165 163 167 173 173 170 171 171 174 174
173 171 170 171 171 171 170 169 171 171 171 169 169 170 172 174 174 173 172 171 170 170 170 171 171 171 171 170 172 173 173 173 172 171 170 170 170 169 169 167 167 167 167 167 167 167 167 167 164 164 165 167 167 167 167 172 180 180 174 167 168 173 176 175 174 175 177 179 179
175 174 174 175 175 175 173 171 170 170 169 167 168 171 173 175 176 174 173 173 175 176 176 174 173 172 171 170 171 173 173 174 173 172 171 170 171 171 171 170 169 169 170 171 171 170 169 169 167 168 170 170 172 171 171 171 178 180 176 170 175 179 180 178 176 179 182 183 183
177 177 176 176 176 176 174 171 169 168 168 168 170 172 174 177 178 178 178 179 179 177 175 174 173 171 169 170 171 172 173 173 175 174 172 171 172 173 173 173 172 172 172 174 174 172 172 172 169 169 172 174 176 174 172 173 179 181 179 176 182 185 186 183 181 183 187 188 188
178 177 178 177 177 176 173 170 169 168 168 170 174 176 177 178 181 182 182 180 176 174 174 174 173 171 169 169 171 172 173 174 175 175 174 172 173 174 175 175 175 175 175 176 175 175 175 175 172 171 173 176 177 177 177 180 185 186 184 182 184 189 193 190 185 187 191 193 191
179 179 179 178 178 177 174 170 169 168 170 175 179 180 180 180 182 183 182 177 175 173 173 174 174 171 169 170 171 172 173 174 175 176 175 174 174 176 177 177 178 178 178 177 177 177 178 178 177 175 175 178 179 181 184 188 192 193 191 188 186 190 196 195 190 191 194 196 195
180 181 180 178 179 178 176 172 172 172 175 180 182 183 182 181 182 181 180 178 176 174 173 174 173 172 171 171 172 173 174 175 176 176 176 176 176 177 179 180 181 181 181 181 181 180 180 181 183 182 182 183 184 185 186 190 196 198 198 194 190 191 196 200 197 197 197 198 199
181 181 180 178 180 179 178 176 176 177 178 181 183 183 182 182 182 181 180 179 175 174 174 174 173 172 172 172 173 173 174 175 176 177 177 178 179 180 181 182 183 183 183 183 184 183 182 184 189 191 191 191 190 188 187 191 198 201 201 199 195 194 196 200 201 201 201 202 202
182 181 180 179 180 180 179 178 179 180 181 183 183 183 182 182 182 182 180 177 175 176 177 175 172 172 172 173 174 174 175 176 177 179 179 180 181 182 183 185 186 185 185 184 184 184 185 188 195 197 199 199 196 192 190 193 200 203 203 203 200 198 199 200 201 203 204 205 205
183 182 181 181 180 180 180 180 181 183 184 184 183 182 181 183 183 182 180 177 177 178 178 176 174 173 172 173 174 175 176 178 179 180 182 183 183 184 185 187 188 187 186 184 184 185 187 193 199 202 203 202 201 198 196 196 201 205 206 205 203 203 203 201 201 203 205 205 206
184 183 182 181 180 181 182 184 184 185 185 184 182 181 182 183 182 181 181 180 180 179 177 176 175 175 175 175 175 176 177 179 181 182 184 185 185 186 187 189 189 189 188 185 185 186 190 196 203 206 206 205 205 204 201 200 204 207 208 207 206 207 207 205 202 202 204 205 207
184 183 182 181 180 181 184 187 187 187 186 185 183 182 181 182 182 182 182 183 181 178 176 174 177 179 179 177 177 177 178 180 181 183 185 187 187 187 188 190 190 190 188 185 186 189 194 201 207 209 209 207 208 207 206 204 207 209 210 209 208 210 210 208 203 201 201 205 209
183 183 182 179 180 182 186 189 190 189 187 186 184 182 180 180 181 182 183 183 181 178 175 174 178 181 182 181 179 179 179 180 181 183 186 188 189 190 190 191 191 191 189 185 187 192 200 208 211 212 211 210 210 209 208 208 211 213 213 212 211 212 211 209 203 200 200 204 209
185 184 183 181 182 185 188 190 191 189 188 187 184 182 180 180 180 181 182 182 180 178 177 177 179 180 182 182 181 180 180 181 182 184 187 189 191 191 192 193 193 192 190 187 188 196 206 213 214 214 213 213 213 212 210 210 213 215 217 217 216 215 214 210 204 201 202 204 208
188 187 185 184 186 188 190 191 191 190 188 187 184 182 181 179 178 179 181 181 180 179 179 180 179 179 179 181 181 182 182 183 185 187 189 191 192 193 194 195 194 193 191 189 192 201 209 216 217 217 216 216 216 215 213 212 214 217 219 220 220 219 217 212 206 203 203 205 209
190 189 188 188 190 191 192 192 192 191 189 187 185 183 182 179 177 178 180 182 181 180 180 181 180 178 178 179 180 182 184 186 188 190 193 194 194 194 195 196 194 193 192 193 198 206 213 218 218 218 218 219 219 219 217 215 216 219 221 222 222 222 219 215 210 206 205 206 209
192 191 191 191 192 193 193 193 193 192 190 187 185 183 182 180 178 178 179 182 182 181 180 180 180 179 178 178 180 182 186 188 191 193 195 196 196 196 196 196 194 193 194 198 204 212 218 222 220 220 219 221 222 222 221 219 220 221 222 224 224 223 221 218 213 210 208 207 209
194 194 193 194 194 194 194 195 194 193 190 187 185 184 182 181 178 178 180 182 182 181 180 179 179 178 178 179 180 183 186 189 193 195 198 198 198 198 197 195 193 194 198 203 211 219 225 227 225 223 222 222 224 224 224 223 223 224 224 225 225 224 222 219 216 214 212 210 210
197 197 196 196 196 196 196 196 195 193 190 187 185 184 182 180 179 180 181 181 180 180 180 180 179 178 178 180 183 185 188 190 193 196 199 199 199 198 196 193 193 196 201 207 216 225 231 233 231 228 226 225 226 226 226 225 226 226 226 226 226 225 224 221 219 217 215 213 212
200 199 198 197 196 196 196 195 194 192 189 187 185 183 181 180 180 181 181 179 177 178 179 180 179 179 180 181 185 187 188 189 193 196 198 199 198 197 195 193 196 200 204 209 219 229 235 238 235 232 230 230 230 229 229 228 228 228 228 228 228 227 225 223 221 219 218 216 214
201 199 198 197 197 196 195 194 192 190 188 185 183 181 180 179 179 178 177 175 176 177 178 179 180 182 183 185 187 188 189 189 192 195 196 197 196 195 194 195 200 204 206 209 222 233 239 240 237 234 233 233 234 234 233 232 232 232 232 231 230 228 227 224 223 222 221 219 217
201 199 197 196 196 195 194 192 190 188 186 183 180 178 176 176 175 174 173 173 175 177 178 177 181 184 187 189 190 190 190 190 191 193 194 195 194 194 195 198 203 205 206 207 225 235 239 239 237 234 233 233 235 237 237 236 236 236 236 235 233 231 229 227 225 224 223 221 219
200 197 195 194 193 193 192 190 188 185 182 178 174 172 171 171 170 170 171 172 174 176 178 179 183 187 190 192 192 192 193 193 192 191 191 192 193 194 196 200 202 200 201 213 231 236 238 237 236 235 234 233 234 236 237 237 238 238 238 238 237 236 234 231 228 227 226 224 221
197 195 193 192 190 189 188 186 182 177 173 169 168 167 167 167 166 167 168 170 172 175 179 183 185 187 188 190 191 192 194 195 193 191 190 191 194 196 197 198 193 190 199 222 235 238 239 236 234 234 234 236 236 236 237 237 236 237 238 239 238 238 237 236 232 230 227 226 223
191 189 188 185 182 180 179 176 170 166 163 162 164 164 164 163 162 162 164 167 171 176 182 188 188 187 185 188 190 192 193 194 193 192 192 193 195 195 194 191 183 187 208 227 236 240 240 237 233 232 233 238 239 239 239 239 237 235 235 236 237 237 237 238 237 234 230 227 223
179 178 174 169 168 167 166 163 161 160 160 161 164 164 162 157 156 158 162 167 171 178 185 192 189 184 183 187 190 191 192 192 191 192 194 197 197 193 187 180 186 200 218 230 238 242 242 240 235 231 230 233 238 240 241 242 240 237 234 234 235 236 236 238 239 237 234 229 223
166 164 162 163 164 162 160 160 161 161 160 161 162 160 156 152 154 158 164 170 177 184 190 192 184 180 182 187 189 189 189 190 190 192 194 197 194 187 179 183 200 215 227 236 243 247 247 244 239 234 231 229 233 236 238 239 239 237 235 233 234 234 235 236 238 238 235 230 222
160 161 162 165 165 163 161 161 160 158 156 155 156 155 154 153 158 164 172 179 186 190 192 186 179 181 186 188 185 184 185 187 187 186 186 188 185 182 186 200 212 225 238 245 251 253 253 249 243 238 233 228 230 234 237 237 237 237 236 236 235 234 235 236 237 237 235 231 223
164 165 166 167 166 165 162 160 156 154 152 153 156 159 161 164 170 176 182 188 191 190 187 179 179 183 186 184 179 178 178 176 172 172 174 177 179 189 202 213 222 237 249 254 259 259 257 253 248 243 237 229 229 231 235 236 237 237 237 237 236 235 235 236 237 236 234 231 225
171 170 169 169 168 167 164 161 158 158 158 160 164 167 171 176 180 184 187 189 187 183 179 178 181 182 181 176 172 169 165 157 158 165 171 175 184 197 209 220 233 249 257 260 262 262 260 256 252 247 241 231 229 231 235 237 238 238 239 240 240 238 237 236 235 235 233 230 226
175 173 173 173 171 168 165 163 163 164 166 168 171 174 178 181 183 185 186 184 179 177 177 180 180 179 175 170 164 158 151 148 161 168 173 175 189 200 210 223 243 255 258 259 261 261 260 257 254 250 245 235 233 234 236 237 238 239 240 241 241 240 239 237 236 235 232 228 225
177 177 177 177 174 170 167 166 167 168 171 174 176 178 180 181 182 182 181 178 175 176 177 177 176 172 168 162 155 150 149 157 167 169 172 180 193 201 211 235 252 256 257 257 260 260 260 258 255 252 248 239 237 237 238 238 239 239 240 242 242 241 239 237 236 235 232 228 224
179 179 179 179 175 172 171 171 172 174 176 178 179 179 180 179 179 178 175 172 169 169 168 167 163 157 152 148 145 146 151 159 160 163 170 184 191 199 222 251 259 258 257 257 260 261 261 260 259 256 252 245 243 241 240 239 239 240 241 242 243 242 239 236 235 233 231 227 223
181 180 179 177 175 174 175 176 178 180 182 182 180 179 177 176 174 171 167 163 161 158 155 152 147 143 139 138 140 145 149 148 147 156 171 185 187 204 238 256 260 258 257 257 259 261 263 263 263 261 258 254 250 246 242 239 240 241 241 243 243 242 239 235 233 231 228 225 220
182 180 177 175 175 176 178 179 181 184 185 184 179 175 172 170 167 163 160 156 154 152 149 146 144 142 140 138 139 139 137 135 142 159 179 192 194 221 246 255 259 259 259 257 258 261 265 266 266 265 264 262 258 251 245 242 242 242 243 243 243 241 239 235 231 227 224 221 216
182 179 177 176 177 178 178 179 181 183 184 180 174 169 166 163 159 157 155 154 152 150 148 146 144 141 138 135 132 130 129 134 150 169 186 196 207 231 246 254 259 260 260 257 260 263 266 268 268 267 267 268 264 258 250 244 242 242 242 243 243 240 236 233 228 225 222 218 215
181 180 178 178 177 176 176 178 180 180 177 170 165 162 160 157 154 154 154 155 153 149 146 144 140 136 132 129 127 128 133 145 162 177 190 203 219 233 243 251 258 261 262 262 264 266 267 269 271 271 270 270 266 260 253 246 244 243 242 242 242 239 234 229 225 223 222 219 217
178 178 177 176 174 173 173 175 175 173 167 161 159 158 157 154 151 152 155 157 152 146 140 137 133 130 127 125 128 133 143 159 176 187 198 213 227 234 240 247 255 261 266 267 267 268 269 271 274 274 273 271 265 258 252 246 243 242 241 240 238 235 230 224 221 222 222 220 218
172 173 172 171 168 168 169 170 167 163 159 156 156 155 152 150 150 153 155 155 146 139 132 129 127 126 125 126 130 140 153 173 190 200 209 221 231 235 237 243 252 262 269 271 269 270 272 275 277 276 274 271 265 257 248 241 240 240 239 238 234 231 228 222 218 219 220 220 218